Date String (YYYY-MM-DD hh:mm:ss) UTC,Instrument flags,Ambient pressure (hPa),Sample flow (lpm),Bypass flow (lpm),Sample temperature (°C),Ambient temperature (°C),ASC tube jacket temperature (°C),LED temperature (°C),Box temperature (°C),Sample RH (%),Span deviation,Mass concentration (μg/m³),Mass concentration (μg/m³),Mass concentration (μg/m³)
DateTimeUTC,F1_M11,P_M11,Q1_M11,Q2_M11,T1_M11,T2_M11,T3_M11,T4_M11,T5_M11,U1_M11,ZSPAN_M11,X0_M11,X2_M11,X1_M11
2023-01-12 06:00:00,,0829.9,5.00,0.00,22.6,22.1,00.0,31.3,24.5,18.6,-002.1,0017.55,0013.42,0013.23
2023-01-12 06:01:00,,0829.9,5.00,0.00,22.6,21.9,00.0,31.3,24.4,18.7,-002.2,0017.54,0013.42,0013.23
2023-01-12 06:02:00,,0829.9,5.00,0.00,22.6,21.7,00.0,31.3,24.4,18.7,-002.3,0017.81,0013.43,0013.24
2023-01-12 06:03:00,,0829.9,4.99,0.00,22.6,21.6,00.0,31.3,24.4,18.6,-002.2,0017.93,0013.41,0013.21
2023-01-12 06:04:00,,0829.9,5.01,0.00,22.6,21.6,00.0,31.3,24.4,18.6,-002.2,0017.92,0013.41,0013.20
2023-01-12 06:05:00,,0829.8,5.01,0.00,22.6,21.5,00.0,31.3,24.4,18.5,-002.2,0018.00,0013.44,0013.22
2023-01-12 06:06:00,,0829.9,5.01,0.00,22.6,21.5,00.0,31.4,24.4,18.5,-002.3,0018.09,0013.44,0013.21
2023-01-12 06:07:00,,0829.8,5.00,0.00,22.6,21.5,00.0,31.4,24.4,18.6,-002.3,0018.06,0013.42,0013.20
2023-01-12 06:08:00,,0829.8,4.99,0.00,22.6,21.4,00.0,31.4,24.4,19.0,-002.4,0018.03,0013.36,0013.13
2023-01-12 06:09:00,,0829.8,5.00,0.00,22.6,21.3,00.0,31.4,24.4,18.9,-002.4,0018.03,0013.33,0013.07
2023-01-12 06:10:00,,0829.8,5.01,0.00,22.6,21.3,00.0,31.4,24.4,18.7,-002.5,0017.98,0013.31,0013.05
2023-01-12 06:11:00,,0829.9,5.00,0.00,22.6,21.3,00.0,31.4,24.4,18.7,-002.6,0017.97,0013.28,0013.02
2023-01-12 06:12:00,,0829.8,5.00,0.00,22.6,21.3,00.0,31.4,24.4,18.6,-002.5,0017.98,0013.24,0012.95
2023-01-12 06:13:00,,0829.8,5.00,0.00,22.5,21.2,00.0,31.4,24.3,18.6,-002.5,0017.67,0013.17,0012.88
2023-01-12 06:14:00,,0829.8,5.01,0.00,22.5,21.2,00.0,31.4,24.3,18.6,-002.6,0017.44,0013.13,0012.83
2023-01-12 06:15:00,,0829.8,5.00,0.00,22.5,21.2,00.0,31.4,24.3,18.5,-002.6,0017.37,0013.06,0012.78
2023-01-12 06:16:00,,0829.8,5.00,0.00,22.5,21.1,00.0,31.4,24.3,18.5,-002.4,0017.16,0012.97,0012.68
2023-01-12 06:17:00,,0829.8,5.00,0.00,22.5,21.1,00.0,31.4,24.3,18.5,-002.5,0016.97,0012.89,0012.61
2023-01-12 06:18:00,,0829.8,4.99,0.00,22.5,21.1,00.0,31.4,24.2,18.5,-002.5,0016.82,0012.81,0012.52
2023-01-12 06:19:00,,0829.8,5.00,0.00,22.5,21.0,00.0,31.4,24.2,18.6,-002.5,0016.71,0012.76,0012.49
2023-01-12 06:20:00,,0829.8,5.00,0.00,22.5,21.0,00.0,31.4,24.2,18.6,-002.5,0016.57,0012.70,0012.46
2023-01-12 06:21:00,,0829.9,5.01,0.00,22.5,21.1,00.0,31.3,24.2,18.6,-002.6,0016.48,0012.65,0012.42
2023-01-12 06:22:00,,0829.9,5.00,0.00,22.4,21.1,00.0,31.3,24.2,18.5,-002.6,0016.38,0012.60,0012.37
2023-01-12 06:23:00,,0829.9,5.01,0.00,22.4,21.1,00.0,31.3,24.2,18.5,-002.7,0016.30,0012.55,0012.33
2023-01-12 06:24:00,,0829.9,5.02,0.00,22.4,21.1,00.0,31.3,24.2,18.4,-002.6,0016.21,0012.53,0012.32
2023-01-12 06:25:00,,0829.9,5.00,0.00,22.4,21.1,00.0,31.3,24.2,18.3,-002.6,0016.18,0012.52,0012.32
2023-01-12 06:26:00,,0829.9,5.01,0.00,22.4,21.0,00.0,31.3,24.2,18.4,-002.6,0016.17,0012.54,0012.35
2023-01-12 06:27:00,,0829.8,5.00,0.00,22.4,21.0,00.0,31.3,24.2,18.4,-002.7,0016.24,0012.57,0012.38
2023-01-12 06:28:00,,0829.8,4.99,0.00,22.4,21.0,00.0,31.3,24.1,18.4,-002.6,0016.25,0012.57,0012.38
2023-01-12 06:29:00,,0829.8,4.99,0.00,22.4,21.1,00.0,31.3,24.2,18.5,-002.6,0016.36,0012.61,0012.42
2023-01-12 06:30:00,,0829.9,5.00,0.00,22.4,21.9,00.0,31.3,24.4,18.4,-002.6,0016.43,0012.64,0012.46
2023-01-12 06:31:00,,0829.9,5.00,0.00,22.5,22.7,00.0,31.3,24.6,18.2,-002.6,0016.46,0012.65,0012.48
2023-01-12 06:32:00,,0829.9,5.00,0.00,22.6,22.8,00.0,31.3,24.7,18.1,-002.4,0016.50,0012.68,0012.51
2023-01-12 06:33:00,,0829.9,5.00,0.00,22.7,22.4,00.0,31.4,24.6,18.1,-002.4,0016.69,0012.79,0012.60
2023-01-12 06:34:00,,0829.8,5.01,0.00,22.7,22.1,00.0,31.4,24.6,18.1,-002.2,0016.82,0012.91,0012.73
2023-01-12 06:35:00,,0829.9,5.00,0.00,22.6,21.8,00.0,31.4,24.5,18.2,-002.4,0017.03,0013.02,0012.84
2023-01-12 06:36:00,,0830.0,5.01,0.00,22.6,21.6,00.0,31.4,24.4,18.3,-002.4,0017.14,0013.08,0012.90
2023-01-12 06:37:00,,0830.0,5.00,0.00,22.6,21.4,00.0,31.4,24.4,18.3,-002.4,0017.22,0013.12,0012.93
2023-01-12 06:38:00,,0830.0,4.99,0.00,22.6,21.4,00.0,31.4,24.4,18.4,-002.2,0017.31,0013.20,0012.99
2023-01-12 06:39:00,,0830.0,5.00,0.00,22.6,21.3,00.0,31.4,24.4,18.4,-002.3,0017.48,0013.30,0013.10
2023-01-12 06:40:00,,0829.9,5.00,0.00,22.6,21.2,00.0,31.4,24.3,18.4,-002.4,0017.69,0013.43,0013.21
2023-01-12 06:41:00,,0829.8,5.00,0.00,22.6,21.2,00.0,31.4,24.3,18.5,-002.4,0017.88,0013.53,0013.29
2023-01-12 06:42:00,,0829.9,5.00,0.00,22.6,21.2,00.0,31.4,24.3,18.7,-002.4,0018.26,0013.72,0013.44
2023-01-12 06:43:00,,0829.9,5.01,0.00,22.5,21.2,00.0,31.4,24.3,18.8,-002.4,0018.80,0014.00,0013.66
2023-01-12 06:44:00,,0829.9,5.00,0.00,22.5,21.2,00.0,31.4,24.3,18.5,-002.5,0019.30,0014.17,0013.81
2023-01-12 06:45:00,,0829.9,5.01,0.00,22.5,21.2,00.0,31.4,24.3,18.4,-002.5,0020.16,0014.33,0013.94
2023-01-12 06:46:00,,0829.9,5.01,0.00,22.5,21.1,00.0,31.4,24.3,18.4,-002.4,0020.85,0014.50,0014.07
2023-01-12 06:47:00,,0830.0,5.00,0.00,22.5,21.0,00.0,31.4,24.2,18.5,-002.5,0021.38,0014.68,0014.22
2023-01-12 06:48:00,,0830.0,4.99,0.00,22.5,21.1,00.0,31.4,24.2,18.5,-002.5,0022.53,0014.88,0014.37
2023-01-12 06:49:00,,0830.0,5.00,0.00,22.4,21.0,00.0,31.4,24.2,18.6,-002.5,0023.08,0015.06,0014.52
2023-01-12 06:50:00,,0829.9,5.01,0.00,22.4,21.0,00.0,31.4,24.2,18.6,-002.5,0023.67,0015.28,0014.68
2023-01-12 06:51:00,,0829.9,5.01,0.00,22.4,20.9,00.0,31.4,24.2,18.7,-002.4,0024.31,0015.51,0014.86
2023-01-12 06:52:00,,0830.0,5.02,0.00,22.4,20.9,00.0,31.4,24.2,18.6,-002.3,0024.50,0015.57,0014.89
2023-01-12 06:53:00,,0830.0,5.01,0.00,22.4,20.9,00.0,31.3,24.2,18.5,-002.2,0024.37,0015.41,0014.70
2023-01-12 06:54:00,,0830.0,5.00,0.00,22.4,20.7,00.0,31.3,24.1,18.4,-002.2,0023.95,0015.08,0014.38
2023-01-12 06:55:00,,0829.9,4.99,0.00,22.3,20.7,00.0,31.3,24.0,18.4,-002.2,0023.24,0014.69,0014.00
2023-01-12 06:56:00,,0830.0,5.00,0.00,22.3,20.7,00.0,31.3,24.0,18.5,-002.2,0022.58,0014.52,0013.84
2023-01-12 06:57:00,,0829.9,5.00,0.00,22.3,20.8,00.0,31.3,24.0,18.6,-002.2,0021.98,0014.46,0013.78
2023-01-12 06:58:00,,0829.8,5.00,0.00,22.3,21.5,00.0,31.2,24.2,18.7,-002.2,0021.92,0014.43,0013.71
2023-01-12 06:59:00,,0829.9,5.00,0.00,22.4,22.5,00.0,31.2,24.4,18.7,-002.3,0021.28,0014.49,0013.74
